Terminal Aerodrome Forecast
Issued by NWS Houston/Galveston TX

Home | Current Version | Previous Version | Text Only | Print | Product List | Glossary On
Versions: 1 2 3 4 5 6 7 8 9 10 11 12 13 14 15 16 17 18 19 20 21 22 23 24 25 26 27 28 29 30 31 32 33 34 35 36 37 38 39 40 41 42 43 44 45 46 47 48 49 50
000
FTUS44 KHGX 180926 AAA
TAFHOU
TAF AMD
KHOU 180926Z 1809/1906 14003KT P6SM FEW015 BKN120
     FM181100 VRB04KT P6SM VCSH FEW006 SCT015 BKN250
      TEMPO 1811/1814 VRB15KT SHRA SCT008 BKN015
     FM181400 07005KT P6SM VCTS BKN025CB BKN250
      TEMPO 1814/1817 TSRA BKN020CB OVC040
     FM181700 VRB07KT P6SM VCTS BKN030CB BKN250
      TEMPO 1817/1820 TSRA BKN025CB OVC040
     FM182100 09007KT P6SM VCTS SCT030CB BKN250=

USA.gov is the U.S. government's official web portal to all federal, state and local government web resources and services.